Flag for Chile Weather past 2 weeks in Easter Island, Chile

Now
59 °F

Passing clouds.


Feels Like: 57 °F
Forecast: 60 / 65 °F
Wind: 10 mph from Southeast

Location: Isla De Pascua

Current Time: Oct 21, 2014 at 6:34:40 AM

Latest Report: Oct 21, 2014 at 6:00 AM


Visibility: N/A

Pressure: 30.24 "Hg

Humidity: 63%

Dew point: 46 °F

Location of Easter IslandLocation

Historic Weather in Easter Island — Graph

°F

Easter Island temperature yesterday

Maximum temperature yesterday: 66 °F (at 4:00 PM)
Minimum temperature yesterday: 61 °F (at 1:00 AM)
Average temperature yesterday: 62 °F

Past Weeks' High & Low Weather Summary

 TemperatureHumidityPressure
High73 °F (Oct 19, 3:00 PM)94% (Oct 16, 4:00 AM)30.42 "Hg (Oct 16, 4:00 AM)
Low52 °F (Oct 16, 3:00 AM)45% (Oct 13, 5:00 AM)30.07 "Hg (Oct 11, 5:00 AM)
Average63 °F69%30.22 "Hg
* Reported Oct 6 5:00 AM — Oct 21 5:00 AM, Easter Island, Weather by CustomWeather, © 2014

Note: Actual official high and low records may vary slightly from our data, if they occured in-between our weather recording intervals... More about our weather records

Advertising

Easter Island weather history for previous 24 hours

 ConditionsComfort  
Time TempWeatherWind HumidityBarometerVisibility
5:00 AM
Oct 21
61 °FPassing clouds.8 mph55%30.24 "HgN/A
4:00 AM61 °FPassing clouds.8 mph48%30.24 "HgN/A
3:00 AM61 °FPassing clouds.9 mph52%30.24 "HgN/A
2:00 AM61 °FPassing clouds.12 mph55%30.27 "HgN/A
1:00 AM61 °FPassing clouds.9 mph52%30.27 "HgN/A
12:00 AM61 °FPassing clouds.9 mph55%30.30 "HgN/A
11:00 PM
Oct 20
61 °FPartly sunny.10 mph55%30.27 "HgN/A
10:00 PM61 °FPartly sunny.13 mph63%30.27 "HgN/A
9:00 PM61 °FBroken clouds.8 mph52%30.24 "HgN/A
8:00 PM61 °FScattered clouds.13 mph59%30.21 "HgN/A
7:00 PM63 °FBroken clouds.7 mph56%30.21 "HgN/A
6:00 PM63 °FBroken clouds.14 mph59%30.21 "HgN/A
5:00 PM64 °FScattered clouds.15 mph56%30.21 "HgN/A
4:00 PM66 °FScattered clouds.10 mph52%30.24 "HgN/A
3:00 PM64 °FScattered clouds.9 mph60%30.24 "HgN/A
2:00 PM64 °FScattered clouds.10 mph60%30.24 "HgN/A
1:00 PM63 °FBroken clouds.7 mph64%30.24 "HgN/A
12:00 PM63 °FBroken clouds.10 mph64%30.24 "HgN/A
11:00 AM64 °FBroken clouds.13 mph68%30.21 "HgN/A
10:00 AM64 °FPartly cloudy.10 mph68%30.18 "HgN/A
9:00 AM63 °FPassing clouds.9 mph73%30.18 "HgN/A
8:00 AM63 °FPassing clouds.10 mph68%30.15 "HgN/A
7:00 AM63 °FPassing clouds.9 mph73%30.12 "HgN/A
6:00 AM61 °FSprinkles. Passing clouds.12 mph83%30.12 "HgN/A
Weather by CustomWeather, © 2014

See weather overviewHow to use our weather pages